Weather Roundup
Issued by NWS Chicago, IL

Home | Current Version | Previous Version | Text Only | Print | Product List | Glossary On
Versions: 1 2 3 4 5 6 7 8 9 10 11 12 13 14 15 16 17 18 19 20 21 22 23 24 25 26 27 28 29 30 31 32 33 34 35 36 37 38 39 40 41 42 43 44 45 46 47 48 49 50
000
NZUS59 KLOT 270821
HRRLOT

CHICAGO AREA WEATHER ROUNDUP
NATIONAL WEATHER SERVICE CHICAGO/ROMEOVILLE IL
300 AM CDT FRI MAR 27 2015

NOTE: "FAIR" INDICATES FEW OR NO CLOUDS BELOW 12,000 FEET WITH NO
SIGNIFICANT WEATHER AND/OR OBSTRUCTIONS TO VISIBILITY.

* THESE STATIONS ARE NOT UNDER NWS QUALITY CONTROL. THEY ALSO MAY NOT
  REPORT WEATHER SUCH AS PRECIPITATION OR FOG.

ILZ005-006-012>014-019>023-270900-
NORTHEAST ILLINOIS

CITY           SKY/WX    TMP DP  RH WIND       PRES   REMARKS
OHARE          LGT SNOW  28  24  85 NE13      30.06S FOG     WCI  17
MIDWAY         FLURRIES  31  25  78 N10       30.07S WCI  22
AURORA         CLOUDY    30  18  60 N13       30.07F WCI  20
LANSING*       LGT SNOW  30  24  78 N6        30.06S WCI  24
JOLIET*        CLOUDY    33  18  55 N9        30.07R WCI  25
WAUKEGAN       CLOUDY    26  22  84 N13G20    30.07F WCI  15
DUPAGE AIRPORT CLOUDY    29  19  66 N14       30.06S WCI  18
WHEELING       LGT SNOW  27  23  85 N12       30.09S FOG     WCI  17
KANKAKEE*      CLOUDY    32  22  66 N8        30.06R WCI  25
MORRIS*        CLOUDY    31  20  63 N7        30.07R WCI  25
LEWIS AIRPORT* CLOUDY    31  17  57 N13       30.06S WCI  21
NORTHERLY IS     N/A     29  25  85 NE14        N/A  WCI  18
$$

WIZ051-052-058>065-066-070>072-270900-
SOUTHEAST WISCONSIN

CITY           SKY/WX    TMP DP  RH WIND       PRES   REMARKS
MILWAUKEE      MOCLDY    25  17  72 N10       30.10S WCI  15
KENOSHA*       LGT SNOW  26  22  84 N10       30.08F FOG     WCI  16
RACINE*        CLOUDY    26  20  77 N14       30.10F WCI  14
BURLINGTON     CLOUDY    26  17  69 NW9       30.09S WCI  16
WAUKESHA       LGT SNOW  23  19  86 NE6       30.10S WCI  16
WEST BEND      PTCLDY    19   5  53 N12       30.11S WCI   7
$$

INZ001>003-010>013-019-020-270900-
NORTHWEST INDIANA

CITY           SKY/WX    TMP DP  RH WIND       PRES   REMARKS
GARY*          LGT SNOW  31  23  72 N15       30.07S WCI  20
MICHIGAN CITY* NOT AVBL
RENSSELAER*    NOT AVBL
VALPARAISO     FLURRIES  28  22  78 N8        30.04S WCI  20
$$

LMZ740>746-270900-
SOUTHERN LAKE MICHIGAN

STATION/POSITION TIME  SKY/WX   TEMP WIND        PRES    VSBY
                                AIR  DIR/SP/G
                 (UTC)          (F)  (DEG/KT/KT) (MB)    (MI)
HARRISON CRIB    0800            29   20/ 20/ 23   N/A
BURNHAM HARBOR   0800            29   20/ 13/ 18   N/A
CALUMET HARBOR   0700            30   20/ 15/ 19 1016.8F
BURNS HARBOR     0700            30   20/ 19/ 22 1017.9S
MICHIGAN CITY    0800            27  360/ 24/ 26   N/A
$$

ABBREVIATIONS USED IN REMARKS
   TC - TEMPERATURE IN CELSIUS
  WCI - WIND CHILL INDEX
   HX - HEAT INDEX
  VSB - VISIBILITY
$$


USA.gov is the U.S. government's official web portal to all federal, state and local government web resources and services.